Overview Statistics Trail Chart Weather Telemetry Raw packets
 

This is the latest recevied weather packets stored in our database for station/object NI4CE-10. If no packets are shown the sender has not sent any weather packets the latest 10 day(s).

<< 91 92 93 94 95 96 97 >>
Time Temp. Humidity Pressure Rain* Wind** Luminosity Snow
1788217386 26.67° C 100% 1018.4 hPa 7.11 mm - - -
1788217086 26.67° C 100% 1018.5 hPa 10.16 mm - - -
1788216786 26.67° C 100% 1018.5 hPa 13.97 mm - - -
1788216486 26.67° C 100% 1018.4 hPa 17.02 mm - - -
1788216186 26.11° C 100% 1018.4 hPa 19.81 mm - - -
1788215886 26.11° C 100% 1018.3 hPa 23.62 mm - - -
1788215586 26.11° C 100% 1018.3 hPa 26.67 mm - - -
1788215286 26.11° C 100% 1018.1 hPa 26.42 mm - - -
1788214986 26.11° C 100% 1018 hPa 26.16 mm - - -
1788214686 25.56° C 100% 1017.8 hPa 25.4 mm - - -
1788214386 25.56° C 100% 1018 hPa 23.62 mm - - -
1788214086 25.56° C 100% 1018 hPa 21.34 mm - - -
1788213786 25° C 100% 1017.9 hPa 19.81 mm - - -
1788213486 25° C 100% 1017.9 hPa 16.76 mm - - -
1788213186 25° C 100% 1018 hPa 12.95 mm - - -
1788212886 25.56° C 100% 1018 hPa 9.65 mm - - -
1788212586 26.11° C 100% 1018 hPa 6.86 mm - - -
1788212286 26.67° C 100% 1018 hPa 3.05 mm - - -
1788211986 27.22° C 100% 1017.7 hPa 0 mm - - -
1788211687 26.67° C 100% 1017.7 hPa 0 mm - - -
1788211386 29.44° C 100% 1017.6 hPa 0 mm - - -
1788211086 30.56° C 100% 1017.5 hPa 0 mm - - -
1788210786 32.22° C 100% 1017.1 hPa 0 mm - - -
1788210487 32.78° C 100% 1017 hPa 0 mm - - -
1788210187 32.78° C 100% 1016.8 hPa 0 mm - - -

* Rain latest hour (hover to see other rain measurements)
** Current wind speed in m/s (hover to see current wind gust speed)